Showing default

OBSERVER-1A, 58323

Orbit data source: Space-Track

OBSERVER-1A, 58323 is a payload satellite owned by Nara Space (KR) in SSO that was launched on Sat, 11 Nov 2023 UTC via an FALCON 9 launch vehicle from the Air Force Western Test Range (AFWTR). Payload-class satellites include a variety of spacecraft equipped with specific instruments for various scientific and technological missions. These include communications satellites like Starlink; space stations such as the ISS; scientific satellites like the Hubble; Earth observation satellites from companies like Planet Labs, Umbra, and HawkEye 360; GPS; miniature CubeSats for education and research; and military/defense satellites.

Loading next visibility...
Identifier
58323, 2023-174BV
Orbit
SSO
Country
Flag of KRKR / SKOR
Related business
Manufacturer
Nara Space
Mission
Operational Commercial Imaging
Bus & Motor
CUBESAT 16U, Unknown motor
Mass
24 kg wet, 24 kg dry
Launch date (UTC)
2023-11-11 (3 years ago)
Launch vehicle
FALCON 9
Launch site
Air Force Western Test Range (AFWTR)
Object type
Payload
Rocket body
Debris
Shape & HBR
Box, 0.2 m
Radar Cross Section
0.100 m², Medium (>0.1 m² and < 1m²)

Expand to show TLE details & history
Last TLE update: 11 hours ago

TLE from 11 hours ago
0 OBSERVER-1A
1 58323U 23174BV  26176.29048009  .00013446  00000-0  35196-3 0  9997
2 58323  97.3944 260.1324 0009428 124.3312 235.8827 15.38799612146452
Epoch: 2026-06-25T06:58Z
TLE epoch observation values (Epoch: 2026-06-25T06:58:17.479Z)
Latitude
-0.00002°
Longitude
-117.87589°
Altitude
456.39 km
Speed
7.637 km/s
True Right ascension
17h 20m 31s
True Declination
0° 00' 00"
Sunlit
Object was in full shadow at epoch
Visualization orbit readout
Latitude
Unknown
Longitude
Unknown
Altitude
Unknown
Speed
Unknown
Apparent Right ascension
Unknown
Apparent Declination
Unknown
Sunlit
N/A
Visualization observer readout
Local Sidereal Time
05:18:57
Azimuth
Unknown
Elevation
Unknown
Doppler factor
Unknown
Orbital elements
Apogee altitude
453.033 km
Perigee altitude
440.164 km
Semi-major axis
6,824.735 km
Eccentricity
0.00094
Inclination
97.3944°
RAAN
260.1324°
Arg. of periapsis
124.3312°
True anomaly
235.79332°
Mean anomaly
235.8827°
Eccentric anomaly
235.838°
Mean motion
3.84959 °/min
Orbital period
93.52 mins
BSTAR
0.00035196
Loading maneuver chart data...
Computing Atmospheric mass density...
Loading historical data...
Loading historical data...
Loading historical data...
Loading historical data...
Loading historical data...
Loading historical data...
Loading historical data...

Documentation

Showing up to 5 results
|